星链-31436 (STARLINK-31436 )

导读

STARLINK-31436是由美国(US)于2024年2月23日发射的星链卫星,归属SpaceX星链星座网络,星链计划旨在构建全球卫星互联网星座,为全球范围提供高速低延迟的宽带互联服务,该卫星的发射是星链星座不断扩容完善全球覆盖能力进程中的组成部分,助力星链网络服务能力进一步提升。

基本信息
目录编号:
59019
目录名称:
STARLINK-31436
国际标识:
2024-036X
轨道中心:
EARTH
卫星名称:
星链-31436
卫星全名:
星链-31436 (STARLINK-31436 )
卫星状态:
在轨 (已飞行931 天)
发射日期:
2024-02-23 UTC
国别 :
美国 (US)
星等 :
--
该卫星已列入 空间交会检测服务 Space Conjunction Data Service (SCDS) ,当前飞行风险评估等级: 无高风险
轨道信息
数据来源 国际轨道数据
星历时间: 2026-09-11T17:54:55+0800
10小时前
查看轨道信息
半长轴: 6840.868km
偏心率: 0.0001102
轨道倾角: 53.159°
近地点辐角 94.227°
升交点赤经 294.374°
平近点角 265.886°
近地点: 461.977km
远地点: 463.485km
周期: 93.848分钟
每日圈数: 15.343907
详细信息
固有亮度:
5
最大亮度:
0.3
卫星平台:
Starlink v2.0 mini
覆盖范围:
全球
运营商:
太空探索技术公司
运营商所在国:
美国
制造商(研发单位):
太空探索技术公司
制造商所在国:
美国
使用方式:
暂无
卫星简介
星链(Starlink)计划是由太空探索技术公司(SpaceX)提出的一个巨型低轨卫星互联网星座项目,计划在2019年至2024年间在太空搭建由约1.2万颗卫星组成的“星链”网络,其中1584颗将部署在地球上空550千米处的近地轨道,并从2020年开始工作。该卫星仍在工作。
2D轨道图
3D轨道图
轨道高度分析图
轨道倾角分析图
轨道综合分析图
查看轨道综合分析图
与全量物体交会距离演化趋势
与全量物体交会风险概率演化趋势